CES5166 ZUCK-ZJSY

Flight info

Callsign CES5166
Flight time N/A
Altitude 33100
Route VILUS W180 ELBAV W181 DUDIT A599 LBN W159 BHY W70 NYB G221 WL
Aircraft B77W/H-SDE1E2E3FGHIJ2J3J4J5M1RWXY/LB1D1

Departure

Time N/A
Airport Chongqing Jiangbei International Airport (ZUCK)

Arrival

Time 2026-04-30 14:17
Airport Sanya Phoenix International Airport (ZJSY)
Time Latitude Longitude Altitude Speed Heading
2026-04-30 12:38 27.88860 106.96549 33158 ft 504 kts 182°
2026-04-30 12:39 27.81903 106.96887 33159 ft 504 kts 182°
2026-04-30 12:39 27.74891 106.97251 33158 ft 505 kts 182°
2026-04-30 12:40 27.67875 106.97624 33150 ft 505 kts 182°
2026-04-30 12:40 27.60856 106.97996 33159 ft 504 kts 182°
2026-04-30 12:41 27.53850 106.98366 33156 ft 504 kts 182°
2026-04-30 12:41 27.46850 106.98734 33152 ft 504 kts 182°
2026-04-30 12:42 27.39854 106.99108 33158 ft 503 kts 182°
2026-04-30 12:42 27.32856 106.99484 33161 ft 503 kts 182°
2026-04-30 12:43 27.25875 106.99860 33165 ft 502 kts 182°
2026-04-30 12:43 27.18892 107.00234 33162 ft 502 kts 182°
2026-04-30 12:44 27.11922 107.00607 33169 ft 502 kts 182°
2026-04-30 12:44 27.04951 107.00979 33175 ft 501 kts 182°
2026-04-30 12:45 26.97991 107.01350 33182 ft 501 kts 182°
2026-04-30 12:45 26.91026 107.01720 33185 ft 500 kts 182°
2026-04-30 12:46 26.84079 107.02082 33179 ft 500 kts 182°
2026-04-30 12:46 26.77174 107.02436 33177 ft 500 kts 182°
2026-04-30 12:47 26.70230 107.02782 33185 ft 499 kts 182°
2026-04-30 12:47 26.63292 107.03129 33186 ft 499 kts 182°
2026-04-30 12:48 26.56370 107.03488 33180 ft 498 kts 182°
2026-04-30 12:48 26.49441 107.03889 33181 ft 498 kts 182°
2026-04-30 12:49 26.42516 107.04245 33185 ft 498 kts 183°
2026-04-30 12:49 26.35598 107.04475 33187 ft 497 kts 183°
2026-04-30 12:50 26.32149 107.04921 33183 ft 504 kts 171°
2026-04-30 12:50 26.28841 107.06259 33193 ft 513 kts 157°
2026-04-30 12:50 26.25802 107.08392 33193 ft 521 kts 144°
2026-04-30 12:50 26.23172 107.11176 33219 ft 522 kts 138°
2026-04-30 12:51 26.18077 107.16983 33205 ft 525 kts 137°
2026-04-30 12:51 26.12929 107.22764 33182 ft 526 kts 138°
2026-04-30 12:52 26.07729 107.28477 33203 ft 525 kts 139°
2026-04-30 12:52 26.02508 107.34168 33197 ft 525 kts 139°
2026-04-30 12:53 25.97304 107.39840 33187 ft 524 kts 139°
2026-04-30 12:53 25.92767 107.44785 33186 ft 523 kts 139°
2026-04-30 12:54 25.87575 107.50439 33178 ft 522 kts 138°
2026-04-30 12:54 25.82428 107.56037 33190 ft 521 kts 138°
2026-04-30 12:55 25.77262 107.61648 33179 ft 520 kts 138°
2026-04-30 12:55 25.72088 107.67260 33183 ft 520 kts 138°
2026-04-30 12:56 25.66963 107.72848 33164 ft 509 kts 138°
2026-04-30 12:56 25.61994 107.78299 33155 ft 499 kts 138°
2026-04-30 12:57 25.57051 107.83702 33170 ft 499 kts 138°
2026-04-30 12:57 25.52105 107.89100 33171 ft 500 kts 138°
2026-04-30 12:58 25.46969 107.94165 33153 ft 482 kts 152°
2026-04-30 12:58 25.45056 107.95323 33162 ft 469 kts 159°
2026-04-30 12:58 25.42056 107.96573 33155 ft 456 kts 168°
2026-04-30 12:59 25.35878 107.97593 33173 ft 449 kts 179°
2026-04-30 12:59 25.29632 107.98282 33163 ft 453 kts 178°
2026-04-30 13:00 25.23354 107.99018 33157 ft 455 kts 178°
2026-04-30 13:00 25.17062 107.99785 33152 ft 454 kts 178°
2026-04-30 13:01 25.10794 108.00557 33146 ft 452 kts 178°
2026-04-30 13:01 25.04563 108.01323 33140 ft 449 kts 178°
2026-04-30 13:02 24.98364 108.02082 33149 ft 447 kts 178°
2026-04-30 13:02 24.91139 108.02964 33134 ft 446 kts 178°
2026-04-30 13:03 24.86016 108.03589 33144 ft 446 kts 178°
2026-04-30 13:03 24.79840 108.04343 33144 ft 447 kts 177°
2026-04-30 13:04 24.73650 108.05097 33140 ft 448 kts 177°
2026-04-30 13:04 24.67439 108.05853 33140 ft 449 kts 177°
2026-04-30 13:05 24.61219 108.06610 33145 ft 450 kts 177°
2026-04-30 13:06 24.51872 108.07746 33138 ft 451 kts 177°
2026-04-30 13:06 24.45663 108.08501 33141 ft 451 kts 177°
2026-04-30 13:07 24.39436 108.09258 33138 ft 451 kts 177°
2026-04-30 13:07 24.33197 108.10017 33135 ft 451 kts 177°
2026-04-30 13:08 24.26965 108.10774 33128 ft 450 kts 177°
2026-04-30 13:08 24.20741 108.11529 33133 ft 450 kts 176°
2026-04-30 13:09 24.14515 108.12284 33133 ft 450 kts 176°
2026-04-30 13:09 24.08293 108.13037 33135 ft 450 kts 176°
2026-04-30 13:10 24.02072 108.13789 33136 ft 450 kts 176°
2026-04-30 13:10 23.95838 108.14542 33130 ft 450 kts 176°
2026-04-30 13:11 23.89623 108.15361 33116 ft 450 kts 169°
2026-04-30 13:11 23.86706 108.16627 33134 ft 456 kts 150°
2026-04-30 13:11 23.84257 108.18843 33131 ft 461 kts 132°
2026-04-30 13:11 23.82486 108.21759 33151 ft 464 kts 116°
2026-04-30 13:12 23.81465 108.25106 33118 ft 467 kts 98°
2026-04-30 13:12 23.81051 108.32162 33131 ft 468 kts 92°
2026-04-30 13:13 23.80577 108.42885 33132 ft 473 kts 93°
2026-04-30 13:14 23.79974 108.53652 33128 ft 473 kts 93°
2026-04-30 13:14 23.79342 108.64368 33125 ft 470 kts 93°
2026-04-30 13:15 23.78710 108.75031 33127 ft 468 kts 93°
2026-04-30 13:16 23.78287 108.82116 33122 ft 467 kts 93°
2026-04-30 13:16 23.77862 108.89189 33121 ft 467 kts 93°
2026-04-30 13:17 23.77216 108.99824 33115 ft 469 kts 93°
2026-04-30 13:17 23.76594 109.06850 33102 ft 467 kts 106°
2026-04-30 13:18 23.75300 109.10074 33122 ft 465 kts 124°
2026-04-30 13:18 23.70568 109.14729 33138 ft 461 kts 155°
2026-04-30 13:18 23.67600 109.15985 33110 ft 457 kts 171°
2026-04-30 13:19 23.61225 109.16876 33131 ft 472 kts 176°
2026-04-30 13:19 23.54626 109.17619 33115 ft 474 kts 176°
2026-04-30 13:20 23.48124 109.18417 33129 ft 474 kts 176°
2026-04-30 13:20 23.41583 109.19272 33120 ft 474 kts 175°
2026-04-30 13:21 23.35036 109.20140 33114 ft 473 kts 175°
2026-04-30 13:22 23.25241 109.21433 33114 ft 472 kts 175°
2026-04-30 13:22 23.15461 109.22719 33129 ft 472 kts 175°
2026-04-30 13:23 23.05691 109.24000 33126 ft 471 kts 175°
2026-04-30 13:24 22.92668 109.25707 33126 ft 471 kts 175°
2026-04-30 13:25 22.79648 109.27409 33131 ft 472 kts 175°
2026-04-30 13:26 22.63386 109.29543 33130 ft 472 kts 175°
2026-04-30 13:28 22.47067 109.31701 33126 ft 473 kts 175°
2026-04-30 13:28 22.37275 109.32992 33133 ft 472 kts 175°
2026-04-30 13:29 22.26996 109.34345 33128 ft 472 kts 175°
2026-04-30 13:34 22.26689 109.34385 33131 ft 472 kts 175°
2026-04-30 13:35 22.13710 109.36073 33131 ft 470 kts 175°
2026-04-30 13:36 22.00697 109.37764 33126 ft 469 kts 176°
2026-04-30 13:36 21.91033 109.39017 33127 ft 468 kts 176°
2026-04-30 13:37 21.81355 109.40271 33126 ft 467 kts 176°
2026-04-30 13:38 21.71690 109.41522 33125 ft 466 kts 176°
2026-04-30 13:39 21.58900 109.43729 33128 ft 470 kts 165°
2026-04-30 13:39 21.52913 109.46633 33126 ft 476 kts 153°
2026-04-30 13:40 21.50057 109.48435 33128 ft 476 kts 153°
2026-04-30 13:40 21.44353 109.52070 33126 ft 476 kts 153°
2026-04-30 13:41 21.38619 109.55632 33132 ft 476 kts 154°
2026-04-30 13:41 21.32793 109.58855 33122 ft 472 kts 163°
2026-04-30 13:42 21.26528 109.60742 33127 ft 464 kts 175°
2026-04-30 13:42 21.16943 109.62090 33130 ft 463 kts 177°
2026-04-30 13:43 21.10561 109.62970 33130 ft 462 kts 177°
2026-04-30 13:43 21.04188 109.63882 33129 ft 461 kts 176°
2026-04-30 13:44 20.97834 109.64803 33135 ft 460 kts 177°
2026-04-30 13:44 20.91504 109.65720 33134 ft 459 kts 177°
2026-04-30 13:45 20.82034 109.67088 33134 ft 457 kts 177°
2026-04-30 13:46 20.75744 109.67995 33135 ft 456 kts 177°
2026-04-30 13:46 20.69455 109.68901 33135 ft 455 kts 177°
2026-04-30 13:47 20.64253 109.69650 33137 ft 455 kts 178°
2026-04-30 13:47 20.56924 109.70705 33135 ft 454 kts 178°
2026-04-30 13:48 20.51751 109.71803 33126 ft 462 kts 166°
2026-04-30 13:48 20.47844 109.73703 33140 ft 470 kts 155°
2026-04-30 13:48 20.45989 109.74992 33130 ft 475 kts 148°
2026-04-30 13:49 20.40858 109.79463 33136 ft 478 kts 144°
2026-04-30 13:49 20.35764 109.84018 33136 ft 478 kts 145°
2026-04-30 13:50 20.30622 109.88524 33140 ft 478 kts 146°
2026-04-30 13:50 20.22909 109.95200 33139 ft 479 kts 146°
2026-04-30 13:51 20.17741 109.99669 33138 ft 479 kts 146°
2026-04-30 13:51 20.12583 110.04130 33139 ft 479 kts 146°
2026-04-30 13:52 20.07410 110.08598 33140 ft 478 kts 146°
2026-04-30 13:52 20.04680 110.10510 33132 ft 466 kts 161°
2026-04-30 13:52 20.02033 110.11402 33141 ft 455 kts 176°
2026-04-30 13:53 19.98917 110.11555 33151 ft 446 kts 189°
2026-04-30 13:53 19.95875 110.11023 33145 ft 440 kts 201°
2026-04-30 13:53 19.90348 110.08428 33150 ft 435 kts 209°
2026-04-30 13:54 19.84851 110.05675 33147 ft 439 kts 208°
2026-04-30 13:54 19.79294 110.02952 33142 ft 440 kts 208°
2026-04-30 13:55 19.73718 110.00254 33138 ft 440 kts 208°
2026-04-30 13:55 19.68156 109.97572 33140 ft 439 kts 208°
2026-04-30 13:56 19.62598 109.94893 33134 ft 437 kts 208°
2026-04-30 13:56 19.57074 109.92230 33137 ft 436 kts 208°
2026-04-30 13:57 19.51575 109.89581 33132 ft 435 kts 208°
2026-04-30 13:57 19.46056 109.86924 33142 ft 434 kts 208°
2026-04-30 13:58 19.37786 109.82947 33132 ft 435 kts 208°
2026-04-30 13:59 19.32253 109.80325 33132 ft 436 kts 207°
2026-04-30 13:59 19.26704 109.77707 33139 ft 437 kts 207°
2026-04-30 14:00 19.21179 109.75033 33136 ft 437 kts 208°
2026-04-30 14:00 19.12930 109.70958 33130 ft 438 kts 207°
2026-04-30 14:01 19.07385 109.68305 33130 ft 437 kts 207°
2026-04-30 14:01 19.04583 109.66965 33146 ft 448 kts 207°
2026-04-30 14:01 19.01711 109.65587 33125 ft 456 kts 207°
2026-04-30 14:02 18.98814 109.64197 32573 ft 457 kts 207°
2026-04-30 14:02 18.95917 109.62810 31740 ft 459 kts 207°
2026-04-30 14:02 18.93064 109.61447 30797 ft 441 kts 207°
2026-04-30 14:02 18.90286 109.60121 29408 ft 437 kts 207°
2026-04-30 14:03 18.87526 109.58801 27998 ft 433 kts 207°
2026-04-30 14:03 18.84794 109.57495 26667 ft 429 kts 207°
2026-04-30 14:03 18.82086 109.56201 25404 ft 425 kts 207°
2026-04-30 14:03 18.79411 109.54923 24226 ft 420 kts 207°
2026-04-30 14:04 18.76761 109.53657 23003 ft 416 kts 207°
2026-04-30 14:04 18.74150 109.52409 21827 ft 409 kts 207°
2026-04-30 14:04 18.71578 109.51181 20748 ft 401 kts 207°
2026-04-30 14:04 18.69059 109.49979 19713 ft 393 kts 207°
2026-04-30 14:05 18.66594 109.48802 18686 ft 387 kts 206°
2026-04-30 14:05 18.64153 109.47637 17558 ft 382 kts 206°
2026-04-30 14:05 18.61753 109.46492 16448 ft 377 kts 206°
2026-04-30 14:05 18.59384 109.45361 15441 ft 371 kts 206°
2026-04-30 14:06 18.57091 109.44268 14980 ft 350 kts 206°
2026-04-30 14:06 18.52887 109.42268 14188 ft 316 kts 206°
2026-04-30 14:07 18.49072 109.40374 13175 ft 295 kts 215°
2026-04-30 14:07 18.47619 109.38877 12536 ft 286 kts 232°
2026-04-30 14:07 18.46406 109.37260 11922 ft 284 kts 232°
2026-04-30 14:08 18.43952 109.34024 10677 ft 280 kts 232°
2026-04-30 14:08 18.42735 109.32437 10095 ft 278 kts 231°
2026-04-30 14:08 18.40315 109.29299 8859 ft 273 kts 231°
2026-04-30 14:09 18.39142 109.27768 8401 ft 262 kts 234°
2026-04-30 14:09 18.38424 109.26064 7919 ft 255 kts 260°
2026-04-30 14:09 18.37972 109.22448 7193 ft 245 kts 262°
2026-04-30 14:10 18.37741 109.20678 6770 ft 243 kts 262°
2026-04-30 14:10 18.37455 109.18932 6332 ft 242 kts 250°
2026-04-30 14:10 18.36527 109.17488 5809 ft 241 kts 217°
2026-04-30 14:10 18.35018 109.16774 5332 ft 240 kts 189°
2026-04-30 14:11 18.33379 109.16763 5010 ft 232 kts 173°
2026-04-30 14:11 18.31804 109.16985 4728 ft 224 kts 172°
2026-04-30 14:11 18.30283 109.17220 4396 ft 218 kts 169°
2026-04-30 14:11 18.28916 109.17817 3967 ft 214 kts 137°
2026-04-30 14:12 18.28179 109.19107 3618 ft 204 kts 100°
2026-04-30 14:12 18.28045 109.20547 3391 ft 192 kts 92°
2026-04-30 14:12 18.28029 109.21926 3107 ft 186 kts 90°
2026-04-30 14:12 18.28035 109.22819 2905 ft 182 kts 89°
2026-04-30 14:13 18.28140 109.24538 2504 ft 171 kts 84°
2026-04-30 14:13 18.28278 109.25719 2356 ft 152 kts 83°
2026-04-30 14:13 18.28417 109.26820 2348 ft 159 kts 83°
2026-04-30 14:13 18.28575 109.28045 2177 ft 171 kts 83°
2026-04-30 14:14 18.28729 109.29231 1994 ft 160 kts 83°
2026-04-30 14:14 18.28877 109.30362 1771 ft 149 kts 83°
2026-04-30 14:14 18.29010 109.31392 1592 ft 140 kts 82°
2026-04-30 14:14 18.29145 109.32428 1413 ft 145 kts 82°
2026-04-30 14:15 18.29283 109.33483 1222 ft 144 kts 83°
2026-04-30 14:15 18.29417 109.34514 1034 ft 141 kts 83°
2026-04-30 14:15 18.29546 109.35538 852 ft 142 kts 82°
2026-04-30 14:15 18.29680 109.36573 730 ft 143 kts 83°
2026-04-30 14:16 18.29816 109.37610 579 ft 143 kts 83°
2026-04-30 14:16 18.29951 109.38652 346 ft 143 kts 82°
2026-04-30 14:16 18.30088 109.39686 146 ft 143 kts 82°
2026-04-30 14:16 18.30217 109.40659 106 ft 117 kts 82°
2026-04-30 14:17 18.30307 109.41342 107 ft 72 kts 82°
2026-04-30 14:17 18.30354 109.41706 108 ft 28 kts 82°
2026-04-30 14:17 18.30364 109.41784 108 ft 0 kts 82°
2026-04-30 14:18 18.30373 109.41851 108 ft 23 kts 82°
2026-04-30 14:18 18.30493 109.42196 109 ft 14 kts 53°
2026-04-30 14:19 18.30556 109.42244 112 ft 10 kts
2026-04-30 14:19 18.30588 109.42168 114 ft 21 kts 261°
2026-04-30 14:19 18.30564 109.41982 118 ft 27 kts 264°
2026-04-30 14:20 18.30551 109.41881 116 ft 26 kts 260°
2026-04-30 14:20 18.30538 109.41790 116 ft 26 kts 261°
2026-04-30 14:21 18.30514 109.41600 115 ft 26 kts 262°
2026-04-30 14:21 18.30495 109.41451 119 ft 17 kts 262°
2026-04-30 14:21 18.30504 109.41304 115 ft 8 kts 329°
2026-04-30 14:22 18.30584 109.41284 118 ft 13 kts 351°
2026-04-30 14:22 18.30747 109.41254 120 ft 9 kts 334°
2026-04-30 14:22 18.30774 109.41194 118 ft 11 kts 275°
2026-04-30 14:23 18.30757 109.41017 119 ft 6 kts 262°
2026-04-30 14:23 18.30805 109.40961 119 ft 1 kts 352°
2026-04-30 14:24 18.30823 109.40959 118 ft 0 kts 353°
2026-04-30 14:24 18.30829 109.40958 119 ft 2 kts 353°
2026-04-30 14:25 18.30832 109.40958 119 ft 0 kts 353°